Location: Chinatown
(37.7966°N, 122.4086°W)
Time: 06:09:32
(UTC+00:00)

Cosmos 2237 Rocket - Pass Details

Date: 03 August 2024
Orbit: 836 x 848 km, 71.0° (Epoch: 14 September)

Event Time Altitude Azimuth Distance (km) Brightness Sun altitude
Exits shadow 12:42:26 - 217° (SW) 2,906 4.4 -6.7°
Reaches altitude 10° 12:43:40 10° 220° (SW) 2,454 4.0 -6.5°
Maximum altitude 12:49:08 52° 296° (WNW) 1,042 2.5 -5.5°
Drops below altitude 10° 12:54:38 10° 12° (NNE) 2,460 5.2 -4.6°
Sets 12:57:10 0° 18° (NNE) 3,396 6.1 -4.1°
